Lapse_Rate
5.4 5.5 5.4 5.3 5.3 5.3 5.2 5.0 5.0 4.9 4.9 5.1 5.1 5.2 5.3 5.5 5.6 5.7 5.7 5.8 5.8 5.7 5.6 5.5 5.5 5.4 5.4 5.2 5.3 5.2 5.2 5.2 5.4
5.5 5.5 5.4 5.4 5.3 5.3 5.3 5.1 5.1 5.0 5.0 5.0 5.1 5.2 5.2 5.4 5.4 5.5 5.6 5.6 5.5 5.5 5.4 5.4 5.3 5.3 5.3 5.3 5.1 5.1 5.1 5.2 5.2
5.6 5.5 5.4 5.3 5.4 5.3 5.3 5.2 5.1 5.0 5.1 5.0 5.0 5.2 5.4 5.2 5.3 5.4 5.4 5.5 5.4 5.4 5.3 5.2 5.1 5.2 5.1 5.1 5.0 5.1 5.1 5.1 5.1
5.7 5.6 5.6 5.5 5.4 5.3 5.3 5.2 5.1 5.0 5.1 5.1 5.0 5.0 5.2 5.3 5.3 5.4 5.4 5.4 5.4 5.3 5.2 5.1 5.1 5.0 5.0 5.0 5.0 5.0 5.1 4.9 4.9
5.9 5.6 5.5 5.5 5.5 5.3 5.3 5.3 5.2 5.1 5.1 5.1 5.1 5.0 5.0 5.1 5.2 5.3 5.3 5.3 5.2 5.1 5.1 5.1 5.0 5.0 5.0 4.8 4.8 4.8 4.9 5.0 4.8
5.9 5.8 5.8 5.5 5.4 5.3 5.2 5.2 5.2 5.2 5.2 5.1 5.1 5.0 5.0 5.0 5.1 5.3 5.2 5.1 5.1 5.0 5.0 5.0 5.1 5.0 4.8 4.7 4.7 4.8 4.9 4.9 4.7
5.8 5.7 5.7 5.7 5.6 5.4 5.2 5.1 5.1 5.2 5.1 5.1 5.0 5.1 5.0 5.0 5.1 5.2 5.1 5.0 5.0 4.9 4.9 4.9 5.0 4.9 4.8 4.7 4.6 4.8 4.9 5.0 4.7
6.0 5.9 5.8 5.7 5.6 5.7 5.4 5.3 5.0 5.0 5.1 5.0 5.0 5.0 5.0 5.0 5.1 5.1 5.0 5.0 5.0 5.0 4.9 4.9 4.9 4.9 4.9 4.7 4.5 4.6 4.7 4.9 4.9
5.9 5.9 5.8 5.6 5.5 5.5 5.5 5.3 5.1 4.9 5.0 5.0 4.9 5.0 5.0 5.0 5.0 5.0 5.0 5.0 5.0 5.0 5.0 4.9 4.9 4.9 4.8 4.7 4.6 4.6 4.6 4.7 4.9
5.7 5.7 5.6 5.7 5.7 5.6 5.6 5.4 5.3 5.1 4.9 4.9 4.9 4.9 4.9 5.0 5.0 5.0 5.0 5.0 5.0 5.0 4.9 4.9 4.9 4.8 4.8 4.8 4.7 4.7 4.6 4.6 4.8
5.8 5.7 5.7 5.6 5.7 5.7 5.6 5.6 5.4 5.3 5.2 5.0 4.9 4.9 4.9 4.9 4.9 5.0 5.1 5.1 5.1 5.1 5.0 5.0 4.9 4.8 4.8 4.7 4.6 4.6 4.6 4.6 4.7
5.9 5.6 5.5 5.6 5.8 5.9 5.7 5.8 5.7 5.7 5.4 5.2 5.0 5.0 4.9 4.9 4.9 4.9 5.0 5.1 5.1 5.2 5.1 5.1 5.1 5.0 4.9 4.8 4.7 4.7 4.4 4.5 4.5
5.9 5.8 5.6 5.6 5.7 5.7 5.8 5.6 5.7 5.8 5.8 5.6 5.2 5.0 5.0 5.0 4.8 4.9 4.9 5.0 5.1 5.1 5.1 5.2 5.2 5.1 5.0 5.2 4.9 4.9 4.7 4.6 4.6
6.1 6.0 5.7 5.6 5.7 5.8 5.5 5.7 5.7 5.6 5.6 5.7 5.5 5.3 5.1 5.1 5.0 4.9 4.8 5.0 5.1 5.1 5.1 5.1 5.1 5.0 5.1 5.3 5.2 5.0 4.9 4.8 4.8
6.1 6.0 5.8 5.6 5.7 5.7 5.7 5.7 5.8 5.7 5.4 5.4 5.4 5.4 5.3 5.3 5.2 5.1 5.0 5.0 5.0 5.2 5.2 5.1 5.1 5.0 5.0 5.1 5.4 5.1 5.1 4.9 4.9
6.1 6.1 5.8 5.8 5.7 5.7 5.8 5.5 5.4 5.6 5.6 5.5 5.6 5.4 5.4 5.3 5.4 5.2 5.1 5.2 5.1 5.2 5.3 5.3 5.3 5.3 5.1 5.2 5.4 5.2 5.3 5.0 5.1
6.2 6.1 5.9 5.6 5.4 5.5 5.8 5.6 5.5 5.4 5.4 5.6 5.4 5.6 5.5 5.5 5.5 5.4 5.3 5.3 5.2 5.3 5.4 5.3 5.4 5.4 5.3 5.1 5.4 5.4 5.3 5.5 5.4
6.1 6.1 6.2 6.1 5.3 5.3 5.7 5.5 5.5 5.4 5.5 5.5 5.5 5.4 5.9 5.7 5.6 5.5 5.4 5.3 5.3 5.3 5.4 5.4 5.4 5.4 5.3 5.1 5.3 5.5 5.7 5.8 5.6
5.9 6.1 6.2 6.3 5.8 5.6 5.4 5.4 5.7 5.3 5.4 5.3 5.4 5.4 5.8 5.8 5.7 5.6 5.5 5.5 5.5 5.5 5.6 5.5 5.4 5.4 5.3 5.2 5.3 5.5 5.9 5.9 5.7
5.5 5.8 6.1 6.2 6.1 5.8 5.5 5.6 5.3 5.8 5.7 5.5 5.3 5.2 5.5 5.6 5.6 5.7 5.7 5.6 5.5 5.5 5.4 5.5 5.4 5.3 5.5 5.5 5.7 5.8 5.9 5.9 5.9
Wind_Speed
13 13 15 17 18 19 19 17 17 18 17 17 16 13 10 8 13 14 12 14 14 13 15 14 15 18 16 16 16 16 16 17 15
13 16 17 17 16 17 18 17 16 16 16 16 15 12 6 11 11 12 13 13 13 12 14 13 12 12 13 16 15 15 15 14 15
17 17 17 16 16 14 16 16 15 15 15 15 13 12 10 10 12 13 11 12 13 12 12 11 11 13 12 15 14 14 13 12 14
18 19 18 17 15 13 16 15 15 14 14 14 13 11 4 10 11 12 11 11 11 11 11 10 11 11 11 11 11 11 10 11 12
18 18 18 18 16 13 13 14 14 15 15 13 12 12 8 10 9 8 12 10 10 9 10 9 9 9 9 9 9 8 9 9 9
19 17 19 17 16 13 12 14 14 14 14 13 13 14 7 9 7 9 9 9 10 8 8 8 8 8 7 7 6 6 6 7 7
16 16 17 16 15 13 12 13 14 15 12 12 13 7 8 7 7 10 8 9 9 8 7 7 7 6 6 5 4 4 4 5 4
15 13 16 15 14 13 13 13 13 9 10 12 10 9 9 7 7 11 8 8 8 8 7 6 6 5 5 4 3 2 2 2 2
14 13 13 13 15 14 14 12 12 10 9 10 9 9 7 7 6 11 7 8 8 8 7 7 6 5 5 4 3 2 1 2 1
14 13 14 14 14 14 13 12 11 11 10 8 8 8 8 8 7 8 9 7 8 8 7 7 7 6 6 6 5 5 5 6 5
13 13 14 15 15 15 15 13 11 9 10 9 8 8 8 8 7 7 11 9 8 8 8 8 8 8 8 8 9 9 9 10 9
16 12 10 15 16 16 15 14 13 9 10 9 10 9 9 8 8 7 7 10 10 10 10 10 10 10 11 10 12 13 14 13 12
20 10 11 18 17 15 11 10 10 9 9 8 7 7 9 9 9 8 8 7 8 12 12 10 8 6 5 5 5 6 10 17 16
17 13 15 19 15 11 10 10 11 9 9 8 8 7 7 9 9 10 10 10 9 9 10 12 11 10 9 9 8 7 5 4 8
19 13 16 17 11 11 10 12 11 11 9 8 8 7 7 9 8 10 11 11 11 11 10 10 11 11 10 10 9 6 5 4 4
20 12 11 14 13 14 15 13 13 11 10 9 7 7 8 9 8 10 10 11 12 12 12 11 10 8 9 9 9 7 7 7 5
18 14 12 14 13 16 16 15 11 10 11 9 8 7 8 9 9 8 8 10 11 12 13 12 11 10 9 8 9 8 8 8 8
19 17 12 14 12 11 15 14 16 11 11 15 7 5 7 7 8 12 9 10 8 10 11 11 11 10 10 7 10 10 8 9 11
21 18 14 14 11 13 13 12 12 12 12 10 11 7 3 6 5 6 10 10 10 9 8 11 12 12 11 11 8 10 9 9 11
15 17 17 14 11 13 13 12 13 11 10 11 10 12 7 6 4 4 5 8 8 8 8 10 11 13 12 12 11 12 11 11 11
Wind_Direction
164 140 130 122 122 124 122 125 126 125 123 122 119 115 127 129 106 99 99 99 99 91 91 85 93 81 82 82 77 73 71 66 61
155 138 132 127 126 131 133 131 131 130 127 126 125 122 135 112 107 101 97 102 98 103 91 87 84 88 83 87 82 74 75 66 61
150 144 138 134 133 140 144 138 136 133 132 131 128 123 131 123 108 110 112 108 104 98 101 102 92 87 87 81 79 76 71 66 61
153 150 147 143 140 141 148 143 140 138 137 135 133 137 163 121 115 121 117 114 118 116 110 106 98 99 82 84 83 80 75 64 56
161 155 156 150 146 146 145 147 147 141 141 141 138 139 161 122 126 119 114 128 124 126 114 111 110 98 93 91 87 86 76 71 63
171 180 160 154 150 149 157 152 144 138 141 145 149 163 146 142 131 120 136 133 132 133 124 123 117 112 107 105 103 90 81 72 57
190 171 164 157 156 154 155 151 145 163 157 158 165 184 161 150 147 124 148 147 145 146 139 131 130 128 122 124 119 104 87 81 68
184 174 176 175 170 178 172 164 180 192 174 168 185 175 166 160 151 136 167 162 158 155 152 149 148 150 149 149 156 134 109 95 74
189 181 183 187 186 189 193 190 191 191 187 182 181 182 178 174 166 150 180 177 173 170 168 169 175 178 179 185 208 218 225 241 219
189 186 186 193 192 194 192 200 191 192 191 190 187 194 194 186 179 167 182 195 191 188 187 190 195 203 209 216 224 237 241 248 238
194 191 198 196 196 196 198 195 196 195 195 196 198 199 201 204 202 198 184 204 209 212 207 210 214 221 225 232 237 242 241 248 246
193 196 201 202 198 197 199 201 198 196 198 202 202 201 206 207 207 212 216 194 218 228 233 229 228 233 238 241 245 245 247 245 249
198 199 204 202 201 201 199 197 204 204 198 200 200 211 211 215 214 217 221 223 222 217 233 247 259 269 265 263 264 264 261 249 246
201 203 204 200 200 202 201 202 204 208 208 208 205 210 217 216 220 224 227 229 232 236 215 236 249 254 254 253 255 269 262 262 242
205 196 206 200 200 202 200 205 204 208 212 209 217 216 217 219 220 225 228 236 234 234 239 231 240 240 249 243 241 244 200 190 176
199 202 197 198 205 203 198 200 202 203 208 206 214 226 229 224 224 223 228 226 235 238 236 239 242 233 233 221 226 226 208 206 200
202 196 195 197 208 206 201 198 200 205 199 201 208 218 215 229 225 223 225 228 227 231 232 231 230 229 223 217 211 220 219 216 221
205 196 192 197 206 209 201 198 199 200 198 214 197 210 233 215 206 221 219 221 219 225 224 223 224 226 229 211 218 223 221 226 230
201 200 191 194 196 203 200 198 199 201 202 207 222 244 251 210 199 220 222 221 222 218 216 217 219 224 227 227 236 206 213 224 231
204 201 198 195 198 203 198 194 206 203 207 200 206 218 226 243 261 213 212 229 231 225 225 221 224 221 221 224 219 214 210 218 228